Location: Newark
(52.3500°N, 175.9667°E)
Time: 22:36:00
(UTC+00:00)

Transit 4A - Pass Details

Date: 22 April 2021
Orbit: 871 x 974 km, 66.8° (Epoch: 16 May)

Event Time Altitude Azimuth Distance (km) Brightness Sun altitude
Rises 13:16:51 0° 251° (WSW) 3,608 - -23.9°
Reaches altitude 10° 13:19:38 10° 260° (W) 2,650 - -23.8°
Exits shadow 13:20:51 16° 266° (W) 2,260 9.7 -23.7°
Maximum altitude 13:25:18 37° 327° (NNW) 1,402 9.1 -23.5°
Drops below altitude 10° 13:30:51 10° 34° (NNE) 2,592 11.3 -23.2°
Sets 13:33:33 0° 42° (NE) 3,520 12.1 -23.1°
